owner,sensor,date,latitude,longitude,vertical_datum,sea_water_temperature,qcFlag 
Scripps,ioos:station:wmo:42099:1,2015-01-01T00:22:00Z,27.3400,-84.2750,0.0,24.0,2 
Scripps,ioos:station:wmo:42099:1,2015-01-01T01:22:00Z,27.3400,-84.2750,0.0,23.95,2 
Scripps,ioos:station:wmo:42099:1,2015-01-01T02:22:00Z,27.3400,-84.2750,0.0,23.9,2 
Scripps,ioos:station:wmo:42099:1,2015-01-01T03:22:00Z,27.3400,-84.2750,0.0,23.9,2 
Scripps,ioos:station:wmo:42099:1,2015-01-01T04:22:00Z,27.3400,-84.2750,0.0,23.9,2 
Scripps,ioos:station:wmo:42099:1,2015-01-01T05:22:00Z,27.3400,-84.2750,0.0,23.95,2 
Scripps,ioos:station:wmo:42099:1,2015-01-01T06:22:00Z,27.3400,-84.2750,0.0,23.95,2 
Scripps,ioos:station:wmo:42099:1,2015-01-01T07:22:00Z,27.3400,-84.2750,0.0,23.95,2 
Scripps,ioos:station:wmo:42099:1,2015-01-01T08:22:00Z,27.3400,-84.2750,0.0,23.95,2 
Scripps,ioos:station:wmo:42099:1,2015-01-01T09:22:00Z,27.3400,-84.2750,0.0,23.95,2 
Scripps,ioos:station:wmo:42099:1,2015-01-01T10:22:00Z,27.3400,-84.2750,0.0,23.9,2 
Scripps,ioos:station:wmo:42099:1,2015-01-01T11:22:00Z,27.3400,-84.2750,0.0,23.9,2 
Scripps,ioos:station:wmo:42099:1,2015-01-01T12:22:00Z,27.3400,-84.2750,0.0,23.8,2 
Scripps,ioos:station:wmo:42099:1,2015-01-01T13:22:00Z,27.3400,-84.2750,0.0,23.75,2 
Scripps,ioos:station:wmo:42099:1,2015-01-01T14:22:00Z,27.3400,-84.2750,0.0,23.7,2 
Scripps,ioos:station:wmo:42099:1,2015-01-01T15:22:00Z,27.3400,-84.2750,0.0,23.7,2 
Scripps,ioos:station:wmo:42099:1,2015-01-01T16:22:00Z,27.3400,-84.2750,0.0,23.7,2 
Scripps,ioos:station:wmo:42099:1,2015-01-01T17:22:00Z,27.3400,-84.2750,0.0,23.7,2 
Scripps,ioos:station:wmo:42099:1,2015-01-01T18:22:00Z,27.3400,-84.2750,0.0,23.7,2 
Scripps,ioos:station:wmo:42099:1,2015-01-01T19:22:00Z,27.3400,-84.2750,0.0,23.7,2 
Scripps,ioos:station:wmo:42099:1,2015-01-01T20:22:00Z,27.3400,-84.2750,0.0,23.65,2 
Scripps,ioos:station:wmo:42099:1,2015-01-01T21:22:00Z,27.3400,-84.2750,0.0,23.65,2 
Scripps,ioos:station:wmo:42099:1,2015-01-01T22:22:00Z,27.3400,-84.2750,0.0,23.7,2 
Scripps,ioos:station:wmo:42099:1,2015-01-01T23:22:00Z,27.3400,-84.2750,0.0,23.65,2 
Scripps,ioos:station:wmo:42099:1,2015-01-02T00:22:00Z,27.3400,-84.2750,0.0,23.65,2 
Scripps,ioos:station:wmo:42099:1,2015-01-02T01:22:00Z,27.3400,-84.2750,0.0,23.65,2 
Scripps,ioos:station:wmo:42099:1,2015-01-02T02:22:00Z,27.3400,-84.2750,0.0,23.6,2 
Scripps,ioos:station:wmo:42099:1,2015-01-02T03:22:00Z,27.3400,-84.2750,0.0,23.65,2 
Scripps,ioos:station:wmo:42099:1,2015-01-02T04:22:00Z,27.3400,-84.2750,0.0,23.7,2 
Scripps,ioos:station:wmo:42099:1,2015-01-02T05:22:00Z,27.3400,-84.2750,0.0,23.75,2 
Scripps,ioos:station:wmo:42099:1,2015-01-02T05:52:00Z,27.3400,-84.2750,0.0,23.75,2 
Scripps,ioos:station:wmo:42099:1,2015-01-02T08:22:00Z,27.3400,-84.2750,0.0,23.8,2 
Scripps,ioos:station:wmo:42099:1,2015-01-02T09:22:00Z,27.3400,-84.2750,0.0,23.8,2 
Scripps,ioos:station:wmo:42099:1,2015-01-02T10:22:00Z,27.3400,-84.2750,0.0,23.75,2 
Scripps,ioos:station:wmo:42099:1,2015-01-02T11:22:00Z,27.3400,-84.2750,0.0,23.75,2 
Scripps,ioos:station:wmo:42099:1,2015-01-02T12:22:00Z,27.3400,-84.2750,0.0,23.7,2 
Scripps,ioos:station:wmo:42099:1,2015-01-02T13:22:00Z,27.3400,-84.2750,0.0,23.7,2 
Scripps,ioos:station:wmo:42099:1,2015-01-02T14:22:00Z,27.3400,-84.2750,0.0,23.7,2 
Scripps,ioos:station:wmo:42099:1,2015-01-02T15:22:00Z,27.3400,-84.2750,0.0,23.7,2 
Scripps,ioos:station:wmo:42099:1,2015-01-02T16:22:00Z,27.3400,-84.2750,0.0,23.7,2 
Scripps,ioos:station:wmo:42099:1,2015-01-02T17:22:00Z,27.3400,-84.2750,0.0,23.75,2 
Scripps,ioos:station:wmo:42099:1,2015-01-02T18:22:00Z,27.3400,-84.2750,0.0,23.8,2 
Scripps,ioos:station:wmo:42099:1,2015-01-02T19:22:00Z,27.3400,-84.2750,0.0,23.8,2 
Scripps,ioos:station:wmo:42099:1,2015-01-02T20:22:00Z,27.3400,-84.2750,0.0,23.8,2 
Scripps,ioos:station:wmo:42099:1,2015-01-02T21:22:00Z,27.3400,-84.2750,0.0,23.8,2 
Scripps,ioos:station:wmo:42099:1,2015-01-02T22:22:00Z,27.3400,-84.2750,0.0,23.8,2 
Scripps,ioos:station:wmo:42099:1,2015-01-02T23:22:00Z,27.3400,-84.2750,0.0,23.8,2 
Scripps,ioos:station:wmo:42099:1,2015-01-03T00:22:00Z,27.3400,-84.2750,0.0,23.75,2 
Scripps,ioos:station:wmo:42099:1,2015-01-03T01:22:00Z,27.3400,-84.2750,0.0,23.75,2 
Scripps,ioos:station:wmo:42099:1,2015-01-03T02:22:00Z,27.3400,-84.2750,0.0,23.7,2 
Scripps,ioos:station:wmo:42099:1,2015-01-03T03:22:00Z,27.3400,-84.2750,0.0,23.7,2 
Scripps,ioos:station:wmo:42099:1,2015-01-03T04:22:00Z,27.3400,-84.2750,0.0,23.65,2 
Scripps,ioos:station:wmo:42099:1,2015-01-03T05:22:00Z,27.3400,-84.2750,0.0,23.7,2 
Scripps,ioos:station:wmo:42099:1,2015-01-03T06:22:00Z,27.3400,-84.2750,0.0,23.7,2 
Scripps,ioos:station:wmo:42099:1,2015-01-03T08:22:00Z,27.3400,-84.2750,0.0,23.75,2 
Scripps,ioos:station:wmo:42099:1,2015-01-03T09:22:00Z,27.3400,-84.2750,0.0,23.75,2 
Scripps,ioos:station:wmo:42099:1,2015-01-03T10:22:00Z,27.3400,-84.2750,0.0,23.8,2 
Scripps,ioos:station:wmo:42099:1,2015-01-03T11:22:00Z,27.3400,-84.2750,0.0,23.75,2 
Scripps,ioos:station:wmo:42099:1,2015-01-03T12:22:00Z,27.3400,-84.2750,0.0,23.75,2 
Scripps,ioos:station:wmo:42099:1,2015-01-03T13:22:00Z,27.3400,-84.2750,0.0,23.75,2 
Scripps,ioos:station:wmo:42099:1,2015-01-03T14:22:00Z,27.3400,-84.2750,0.0,23.75,2 
Scripps,ioos:station:wmo:42099:1,2015-01-03T15:22:00Z,27.3400,-84.2750,0.0,23.75,2 
Scripps,ioos:station:wmo:42099:1,2015-01-03T16:22:00Z,27.3400,-84.2750,0.0,23.75,2 
Scripps,ioos:station:wmo:42099:1,2015-01-03T17:22:00Z,27.3400,-84.2750,0.0,23.8,2 
Scripps,ioos:station:wmo:42099:1,2015-01-03T18:22:00Z,27.3400,-84.2750,0.0,23.8,2 
Scripps,ioos:station:wmo:42099:1,2015-01-03T19:22:00Z,27.3400,-84.2750,0.0,23.85,2 
Scripps,ioos:station:wmo:42099:1,2015-01-03T20:22:00Z,27.3400,-84.2750,0.0,23.9,2 
Scripps,ioos:station:wmo:42099:1,2015-01-03T21:22:00Z,27.3400,-84.2750,0.0,23.9,2 
Scripps,ioos:station:wmo:42099:1,2015-01-03T22:22:00Z,27.3400,-84.2750,0.0,23.9,2 
Scripps,ioos:station:wmo:42099:1,2015-01-03T23:22:00Z,27.3400,-84.2750,0.0,23.85,2 
Scripps,ioos:station:wmo:42099:1,2015-01-04T00:22:00Z,27.3400,-84.2750,0.0,23.8,2 
Scripps,ioos:station:wmo:42099:1,2015-01-04T01:22:00Z,27.3400,-84.2750,0.0,23.8,2 
Scripps,ioos:station:wmo:42099:1,2015-01-04T02:22:00Z,27.3400,-84.2750,0.0,23.8,2 
Scripps,ioos:station:wmo:42099:1,2015-01-04T03:22:00Z,27.3400,-84.2750,0.0,23.85,2 
Scripps,ioos:station:wmo:42099:1,2015-01-04T04:22:00Z,27.3400,-84.2750,0.0,23.85,2 
Scripps,ioos:station:wmo:42099:1,2015-01-04T05:22:00Z,27.3400,-84.2750,0.0,23.85,2 
Scripps,ioos:station:wmo:42099:1,2015-01-04T05:52:00Z,27.3400,-84.2750,0.0,23.85,2 
Scripps,ioos:station:wmo:42099:1,2015-01-04T08:22:00Z,27.3400,-84.2750,0.0,23.8,2 
Scripps,ioos:station:wmo:42099:1,2015-01-04T09:22:00Z,27.3400,-84.2750,0.0,23.8,2 
Scripps,ioos:station:wmo:42099:1,2015-01-04T10:22:00Z,27.3400,-84.2750,0.0,23.8,2 
Scripps,ioos:station:wmo:42099:1,2015-01-04T11:22:00Z,27.3400,-84.2750,0.0,23.8,2 
Scripps,ioos:station:wmo:42099:1,2015-01-04T12:22:00Z,27.3400,-84.2750,0.0,23.75,2 
Scripps,ioos:station:wmo:42099:1,2015-01-04T13:22:00Z,27.3400,-84.2750,0.0,23.75,2 
Scripps,ioos:station:wmo:42099:1,2015-01-04T14:22:00Z,27.3400,-84.2750,0.0,23.8,2 
Scripps,ioos:station:wmo:42099:1,2015-01-04T15:22:00Z,27.3400,-84.2750,0.0,23.8,2 
Scripps,ioos:station:wmo:42099:1,2015-01-04T16:22:00Z,27.3400,-84.2750,0.0,23.85,2 
Scripps,ioos:station:wmo:42099:1,2015-01-04T17:22:00Z,27.3400,-84.2750,0.0,23.85,2 
Scripps,ioos:station:wmo:42099:1,2015-01-04T18:22:00Z,27.3400,-84.2750,0.0,23.85,2 
Scripps,ioos:station:wmo:42099:1,2015-01-04T19:22:00Z,27.3400,-84.2750,0.0,23.9,2 
Scripps,ioos:station:wmo:42099:1,2015-01-04T20:22:00Z,27.3400,-84.2750,0.0,23.95,2 
Scripps,ioos:station:wmo:42099:1,2015-01-04T21:22:00Z,27.3400,-84.2750,0.0,23.95,2 
Scripps,ioos:station:wmo:42099:1,2015-01-04T22:22:00Z,27.3400,-84.2750,0.0,23.95,2 
Scripps,ioos:station:wmo:42099:1,2015-01-04T22:52:00Z,27.3400,-84.2750,0.0,23.95,2 
Scripps,ioos:station:wmo:42099:1,2015-01-05T00:22:00Z,27.3400,-84.2750,0.0,23.9,2 
Scripps,ioos:station:wmo:42099:1,2015-01-05T01:22:00Z,27.3400,-84.2750,0.0,23.9,2 
Scripps,ioos:station:wmo:42099:1,2015-01-05T02:22:00Z,27.3400,-84.2750,0.0,23.9,2 
Scripps,ioos:station:wmo:42099:1,2015-01-05T03:22:00Z,27.3400,-84.2750,0.0,23.85,2 
Scripps,ioos:station:wmo:42099:1,2015-01-05T04:22:00Z,27.3400,-84.2750,0.0,23.85,2 
Scripps,ioos:station:wmo:42099:1,2015-01-05T05:22:00Z,27.3400,-84.2750,0.0,23.85,2 
Scripps,ioos:station:wmo:42099:1,2015-01-05T06:22:00Z,27.3400,-84.2750,0.0,23.85,2 
Scripps,ioos:station:wmo:42099:1,2015-01-05T08:22:00Z,27.3400,-84.2750,0.0,23.85,2 
Scripps,ioos:station:wmo:42099:1,2015-01-05T09:22:00Z,27.3400,-84.2750,0.0,23.8,2 
Scripps,ioos:station:wmo:42099:1,2015-01-05T10:22:00Z,27.3400,-84.2750,0.0,23.8,2 
Scripps,ioos:station:wmo:42099:1,2015-01-05T11:22:00Z,27.3400,-84.2750,0.0,23.8,2 
Scripps,ioos:station:wmo:42099:1,2015-01-05T12:22:00Z,27.3400,-84.2750,0.0,23.75,2 
Scripps,ioos:station:wmo:42099:1,2015-01-05T13:22:00Z,27.3400,-84.2750,0.0,23.75,2 
Scripps,ioos:station:wmo:42099:1,2015-01-05T14:22:00Z,27.3400,-84.2750,0.0,23.7,2 
Scripps,ioos:station:wmo:42099:1,2015-01-05T15:22:00Z,27.3400,-84.2750,0.0,23.7,2 
Scripps,ioos:station:wmo:42099:1,2015-01-05T16:22:00Z,27.3400,-84.2750,0.0,23.7,2 
Scripps,ioos:station:wmo:42099:1,2015-01-05T18:22:00Z,27.3400,-84.2750,0.0,23.65,2 
Scripps,ioos:station:wmo:42099:1,2015-01-05T19:22:00Z,27.3400,-84.2750,0.0,23.65,2 
Scripps,ioos:station:wmo:42099:1,2015-01-05T20:22:00Z,27.3400,-84.2750,0.0,23.6,2 
Scripps,ioos:station:wmo:42099:1,2015-01-05T21:22:00Z,27.3400,-84.2750,0.0,23.55,2 
Scripps,ioos:station:wmo:42099:1,2015-01-05T22:22:00Z,27.3400,-84.2750,0.0,23.55,2 
Scripps,ioos:station:wmo:42099:1,2015-01-05T23:22:00Z,27.3400,-84.2750,0.0,23.55,2 
Scripps,ioos:station:wmo:42099:1,2015-01-06T00:22:00Z,27.3400,-84.2750,0.0,23.55,2 
Scripps,ioos:station:wmo:42099:1,2015-01-06T01:22:00Z,27.3400,-84.2750,0.0,23.55,2 
Scripps,ioos:station:wmo:42099:1,2015-01-06T02:22:00Z,27.3400,-84.2750,0.0,23.5,2 
Scripps,ioos:station:wmo:42099:1,2015-01-06T03:22:00Z,27.3400,-84.2750,0.0,23.5,2 
Scripps,ioos:station:wmo:42099:1,2015-01-06T04:22:00Z,27.3400,-84.2750,0.0,23.5,2 
Scripps,ioos:station:wmo:42099:1,2015-01-06T05:22:00Z,27.3400,-84.2750,0.0,23.5,2 
Scripps,ioos:station:wmo:42099:1,2015-01-06T06:22:00Z,27.3400,-84.2750,0.0,23.45,2 
Scripps,ioos:station:wmo:42099:1,2015-01-06T07:22:00Z,27.3400,-84.2750,0.0,23.45,2 
Scripps,ioos:station:wmo:42099:1,2015-01-06T08:22:00Z,27.3400,-84.2750,0.0,23.45,2 
Scripps,ioos:station:wmo:42099:1,2015-01-06T09:22:00Z,27.3400,-84.2750,0.0,23.45,2 
Scripps,ioos:station:wmo:42099:1,2015-01-06T10:22:00Z,27.3400,-84.2750,0.0,23.45,2 
Scripps,ioos:station:wmo:42099:1,2015-01-06T11:22:00Z,27.3400,-84.2750,0.0,23.45,2 
Scripps,ioos:station:wmo:42099:1,2015-01-06T12:22:00Z,27.3400,-84.2750,0.0,23.45,2 
Scripps,ioos:station:wmo:42099:1,2015-01-06T13:22:00Z,27.3400,-84.2750,0.0,23.4,2 
Scripps,ioos:station:wmo:42099:1,2015-01-06T14:22:00Z,27.3400,-84.2750,0.0,23.4,2 
Scripps,ioos:station:wmo:42099:1,2015-01-06T15:22:00Z,27.3400,-84.2750,0.0,23.45,2 
Scripps,ioos:station:wmo:42099:1,2015-01-06T16:22:00Z,27.3400,-84.2750,0.0,23.55,2 
Scripps,ioos:station:wmo:42099:1,2015-01-06T17:22:00Z,27.3400,-84.2750,0.0,23.65,2 
Scripps,ioos:station:wmo:42099:1,2015-01-06T18:22:00Z,27.3400,-84.2750,0.0,23.65,2 
Scripps,ioos:station:wmo:42099:1,2015-01-06T19:22:00Z,27.3400,-84.2750,0.0,23.65,2 
Scripps,ioos:station:wmo:42099:1,2015-01-06T20:22:00Z,27.3400,-84.2750,0.0,23.6,2 
Scripps,ioos:station:wmo:42099:1,2015-01-06T21:22:00Z,27.3400,-84.2750,0.0,23.6,2 
Scripps,ioos:station:wmo:42099:1,2015-01-06T22:22:00Z,27.3400,-84.2750,0.0,23.55,2 
Scripps,ioos:station:wmo:42099:1,2015-01-06T23:22:00Z,27.3400,-84.2750,0.0,23.55,2 
Scripps,ioos:station:wmo:42099:1,2015-01-07T00:22:00Z,27.3400,-84.2750,0.0,23.5,2 
Scripps,ioos:station:wmo:42099:1,2015-01-07T01:22:00Z,27.3400,-84.2750,0.0,23.5,2 
Scripps,ioos:station:wmo:42099:1,2015-01-07T02:22:00Z,27.3400,-84.2750,0.0,23.5,2 
Scripps,ioos:station:wmo:42099:1,2015-01-07T03:22:00Z,27.3400,-84.2750,0.0,23.5,2 
Scripps,ioos:station:wmo:42099:1,2015-01-07T04:22:00Z,27.3400,-84.2750,0.0,23.5,2 
Scripps,ioos:station:wmo:42099:1,2015-01-07T05:22:00Z,27.3400,-84.2750,0.0,23.45,2 
Scripps,ioos:station:wmo:42099:1,2015-01-07T06:22:00Z,27.3400,-84.2750,0.0,23.45,2 
Scripps,ioos:station:wmo:42099:1,2015-01-07T07:22:00Z,27.3400,-84.2750,0.0,23.45,2 
Scripps,ioos:station:wmo:42099:1,2015-01-07T08:22:00Z,27.3400,-84.2750,0.0,23.45,2 
Scripps,ioos:station:wmo:42099:1,2015-01-07T09:22:00Z,27.3400,-84.2750,0.0,23.45,2 
Scripps,ioos:station:wmo:42099:1,2015-01-07T10:22:00Z,27.3400,-84.2750,0.0,23.45,2 
Scripps,ioos:station:wmo:42099:1,2015-01-07T11:22:00Z,27.3400,-84.2750,0.0,23.4,2 
Scripps,ioos:station:wmo:42099:1,2015-01-07T12:22:00Z,27.3400,-84.2750,0.0,23.4,2 
Scripps,ioos:station:wmo:42099:1,2015-01-07T13:22:00Z,27.3400,-84.2750,0.0,23.4,2 
Scripps,ioos:station:wmo:42099:1,2015-01-07T14:22:00Z,27.3400,-84.2750,0.0,23.35,2 
Scripps,ioos:station:wmo:42099:1,2015-01-07T15:22:00Z,27.3400,-84.2750,0.0,23.35,2 
Scripps,ioos:station:wmo:42099:1,2015-01-07T16:22:00Z,27.3400,-84.2750,0.0,23.4,2 
Scripps,ioos:station:wmo:42099:1,2015-01-07T17:22:00Z,27.3400,-84.2750,0.0,23.4,2 
Scripps,ioos:station:wmo:42099:1,2015-01-07T18:22:00Z,27.3400,-84.2750,0.0,23.4,2 
Scripps,ioos:station:wmo:42099:1,2015-01-07T19:22:00Z,27.3400,-84.2750,0.0,23.4,2 
Scripps,ioos:station:wmo:42099:1,2015-01-07T20:22:00Z,27.3400,-84.2750,0.0,23.4,2 
Scripps,ioos:station:wmo:42099:1,2015-01-07T21:22:00Z,27.3400,-84.2750,0.0,23.4,2 
Scripps,ioos:station:wmo:42099:1,2015-01-07T22:22:00Z,27.3400,-84.2750,0.0,23.35,2 
Scripps,ioos:station:wmo:42099:1,2015-01-07T23:22:00Z,27.3400,-84.2750,0.0,23.35,2 
Scripps,ioos:station:wmo:42099:1,2015-01-08T00:22:00Z,27.3400,-84.2750,0.0,23.35,2 
Scripps,ioos:station:wmo:42099:1,2015-01-08T01:22:00Z,27.3400,-84.2750,0.0,23.35,2 
Scripps,ioos:station:wmo:42099:1,2015-01-08T02:22:00Z,27.3400,-84.2750,0.0,23.3,2 
Scripps,ioos:station:wmo:42099:1,2015-01-08T03:22:00Z,27.3400,-84.2750,0.0,23.3,2 
Scripps,ioos:station:wmo:42099:1,2015-01-08T05:22:00Z,27.3400,-84.2750,0.0,23.3,2 
Scripps,ioos:station:wmo:42099:1,2015-01-08T06:22:00Z,27.3400,-84.2750,0.0,23.25,2 
Scripps,ioos:station:wmo:42099:1,2015-01-08T08:22:00Z,27.3400,-84.2750,0.0,23.2,2 
Scripps,ioos:station:wmo:42099:1,2015-01-08T09:22:00Z,27.3400,-84.2750,0.0,23.2,2 
Scripps,ioos:station:wmo:42099:1,2015-01-08T10:22:00Z,27.3400,-84.2750,0.0,23.15,2 
Scripps,ioos:station:wmo:42099:1,2015-01-08T11:22:00Z,27.3400,-84.2750,0.0,23.15,2 
Scripps,ioos:station:wmo:42099:1,2015-01-08T12:22:00Z,27.3400,-84.2750,0.0,23.15,2 
Scripps,ioos:station:wmo:42099:1,2015-01-08T13:22:00Z,27.3400,-84.2750,0.0,23.15,2 
Scripps,ioos:station:wmo:42099:1,2015-01-08T14:22:00Z,27.3400,-84.2750,0.0,23.1,2 
Scripps,ioos:station:wmo:42099:1,2015-01-08T15:22:00Z,27.3400,-84.2750,0.0,23.1,2 
Scripps,ioos:station:wmo:42099:1,2015-01-08T16:22:00Z,27.3400,-84.2750,0.0,23.05,2 
Scripps,ioos:station:wmo:42099:1,2015-01-08T17:22:00Z,27.3400,-84.2750,0.0,23.05,2 
Scripps,ioos:station:wmo:42099:1,2015-01-08T18:22:00Z,27.3400,-84.2750,0.0,23.05,2 
Scripps,ioos:station:wmo:42099:1,2015-01-08T19:22:00Z,27.3400,-84.2750,0.0,23.0,2 
Scripps,ioos:station:wmo:42099:1,2015-01-08T20:22:00Z,27.3400,-84.2750,0.0,23.0,2 
Scripps,ioos:station:wmo:42099:1,2015-01-08T21:22:00Z,27.3400,-84.2750,0.0,23.0,2 
Scripps,ioos:station:wmo:42099:1,2015-01-08T22:22:00Z,27.3400,-84.2750,0.0,23.0,2 
Scripps,ioos:station:wmo:42099:1,2015-01-08T23:22:00Z,27.3400,-84.2750,0.0,23.0,2 
Scripps,ioos:station:wmo:42099:1,2015-01-09T00:22:00Z,27.3400,-84.2750,0.0,22.95,2 
Scripps,ioos:station:wmo:42099:1,2015-01-09T01:22:00Z,27.3400,-84.2750,0.0,23.0,2 
Scripps,ioos:station:wmo:42099:1,2015-01-09T02:22:00Z,27.3400,-84.2750,0.0,23.0,2 
Scripps,ioos:station:wmo:42099:1,2015-01-09T03:22:00Z,27.3400,-84.2750,0.0,23.0,2 
Scripps,ioos:station:wmo:42099:1,2015-01-09T04:22:00Z,27.3400,-84.2750,0.0,23.0,2 
Scripps,ioos:station:wmo:42099:1,2015-01-09T05:22:00Z,27.3400,-84.2750,0.0,23.0,2 
Scripps,ioos:station:wmo:42099:1,2015-01-09T06:22:00Z,27.3400,-84.2750,0.0,23.0,2 
Scripps,ioos:station:wmo:42099:1,2015-01-09T07:22:00Z,27.3400,-84.2750,0.0,23.0,2 
Scripps,ioos:station:wmo:42099:1,2015-01-09T08:22:00Z,27.3400,-84.2750,0.0,23.0,2 
Scripps,ioos:station:wmo:42099:1,2015-01-09T09:22:00Z,27.3400,-84.2750,0.0,23.0,2 
Scripps,ioos:station:wmo:42099:1,2015-01-09T10:22:00Z,27.3400,-84.2750,0.0,23.0,2 
Scripps,ioos:station:wmo:42099:1,2015-01-09T11:22:00Z,27.3400,-84.2750,0.0,23.0,2 
Scripps,ioos:station:wmo:42099:1,2015-01-09T12:22:00Z,27.3400,-84.2750,0.0,23.0,2 
Scripps,ioos:station:wmo:42099:1,2015-01-09T13:22:00Z,27.3400,-84.2750,0.0,23.0,2 
Scripps,ioos:station:wmo:42099:1,2015-01-09T14:22:00Z,27.3400,-84.2750,0.0,22.95,2 
Scripps,ioos:station:wmo:42099:1,2015-01-09T15:22:00Z,27.3400,-84.2750,0.0,22.95,2 
Scripps,ioos:station:wmo:42099:1,2015-01-09T16:22:00Z,27.3400,-84.2750,0.0,22.95,2 
Scripps,ioos:station:wmo:42099:1,2015-01-09T17:22:00Z,27.3400,-84.2750,0.0,22.95,2 
Scripps,ioos:station:wmo:42099:1,2015-01-09T18:22:00Z,27.3400,-84.2750,0.0,22.95,2 
Scripps,ioos:station:wmo:42099:1,2015-01-09T19:22:00Z,27.3400,-84.2750,0.0,22.95,2 
Scripps,ioos:station:wmo:42099:1,2015-01-09T20:22:00Z,27.3400,-84.2750,0.0,22.95,2 
Scripps,ioos:station:wmo:42099:1,2015-01-09T21:22:00Z,27.3400,-84.2750,0.0,22.9,2 
Scripps,ioos:station:wmo:42099:1,2015-01-09T22:22:00Z,27.3400,-84.2750,0.0,22.9,2 
Scripps,ioos:station:wmo:42099:1,2015-01-09T23:22:00Z,27.3400,-84.2750,0.0,22.85,2 
Scripps,ioos:station:wmo:42099:1,2015-01-10T00:22:00Z,27.3400,-84.2750,0.0,22.85,2 
Scripps,ioos:station:wmo:42099:1,2015-01-10T01:22:00Z,27.3400,-84.2750,0.0,22.85,2 
Scripps,ioos:station:wmo:42099:1,2015-01-10T02:22:00Z,27.3400,-84.2750,0.0,22.8,2 
Scripps,ioos:station:wmo:42099:1,2015-01-10T03:22:00Z,27.3400,-84.2750,0.0,22.75,2 
Scripps,ioos:station:wmo:42099:1,2015-01-10T04:22:00Z,27.3400,-84.2750,0.0,22.65,2 
Scripps,ioos:station:wmo:42099:1,2015-01-10T05:22:00Z,27.3400,-84.2750,0.0,22.65,2 
Scripps,ioos:station:wmo:42099:1,2015-01-10T06:22:00Z,27.3400,-84.2750,0.0,22.65,2 
Scripps,ioos:station:wmo:42099:1,2015-01-10T07:22:00Z,27.3400,-84.2750,0.0,22.65,2 
Scripps,ioos:station:wmo:42099:1,2015-01-10T08:22:00Z,27.3400,-84.2750,0.0,22.65,2 
Scripps,ioos:station:wmo:42099:1,2015-01-10T09:22:00Z,27.3400,-84.2750,0.0,22.7,2 
Scripps,ioos:station:wmo:42099:1,2015-01-10T10:22:00Z,27.3400,-84.2750,0.0,22.75,2 
Scripps,ioos:station:wmo:42099:1,2015-01-10T11:22:00Z,27.3400,-84.2750,0.0,22.75,2 
Scripps,ioos:station:wmo:42099:1,2015-01-10T12:22:00Z,27.3400,-84.2750,0.0,22.75,2 
Scripps,ioos:station:wmo:42099:1,2015-01-10T13:22:00Z,27.3400,-84.2750,0.0,22.75,2 
Scripps,ioos:station:wmo:42099:1,2015-01-10T14:22:00Z,27.3400,-84.2750,0.0,22.7,2 
Scripps,ioos:station:wmo:42099:1,2015-01-10T15:22:00Z,27.3400,-84.2750,0.0,22.7,2 
Scripps,ioos:station:wmo:42099:1,2015-01-10T16:22:00Z,27.3400,-84.2750,0.0,22.7,2 
Scripps,ioos:station:wmo:42099:1,2015-01-10T17:22:00Z,27.3400,-84.2750,0.0,22.65,2 
Scripps,ioos:station:wmo:42099:1,2015-01-10T18:22:00Z,27.3400,-84.2750,0.0,22.65,2 
Scripps,ioos:station:wmo:42099:1,2015-01-10T19:22:00Z,27.3400,-84.2750,0.0,22.8,2 
Scripps,ioos:station:wmo:42099:1,2015-01-10T20:22:00Z,27.3400,-84.2750,0.0,22.8,2 
Scripps,ioos:station:wmo:42099:1,2015-01-10T21:22:00Z,27.3400,-84.2750,0.0,22.8,2 
Scripps,ioos:station:wmo:42099:1,2015-01-10T22:22:00Z,27.3400,-84.2750,0.0,22.8,2 
Scripps,ioos:station:wmo:42099:1,2015-01-10T23:22:00Z,27.3400,-84.2750,0.0,22.75,2 
Scripps,ioos:station:wmo:42099:1,2015-01-11T00:22:00Z,27.3400,-84.2750,0.0,22.8,2 
Scripps,ioos:station:wmo:42099:1,2015-01-11T01:22:00Z,27.3400,-84.2750,0.0,22.8,2 
Scripps,ioos:station:wmo:42099:1,2015-01-11T02:22:00Z,27.3400,-84.2750,0.0,22.65,2 
Scripps,ioos:station:wmo:42099:1,2015-01-11T03:22:00Z,27.3400,-84.2750,0.0,22.5,2 
Scripps,ioos:station:wmo:42099:1,2015-01-11T04:22:00Z,27.3400,-84.2750,0.0,22.15,2 
Scripps,ioos:station:wmo:42099:1,2015-01-11T05:22:00Z,27.3400,-84.2750,0.0,22.2,2 
Scripps,ioos:station:wmo:42099:1,2015-01-11T06:22:00Z,27.3400,-84.2750,0.0,22.25,2 
Scripps,ioos:station:wmo:42099:1,2015-01-11T07:22:00Z,27.3400,-84.2750,0.0,22.3,2 
Scripps,ioos:station:wmo:42099:1,2015-01-11T08:22:00Z,27.3400,-84.2750,0.0,22.35,2 
Scripps,ioos:station:wmo:42099:1,2015-01-11T09:22:00Z,27.3400,-84.2750,0.0,22.3,2 
Scripps,ioos:station:wmo:42099:1,2015-01-11T10:22:00Z,27.3400,-84.2750,0.0,22.25,2 
Scripps,ioos:station:wmo:42099:1,2015-01-11T11:22:00Z,27.3400,-84.2750,0.0,22.2,2 
Scripps,ioos:station:wmo:42099:1,2015-01-11T12:22:00Z,27.3400,-84.2750,0.0,22.15,2 
Scripps,ioos:station:wmo:42099:1,2015-01-11T13:22:00Z,27.3400,-84.2750,0.0,22.15,2 
Scripps,ioos:station:wmo:42099:1,2015-01-11T14:22:00Z,27.3400,-84.2750,0.0,22.3,2 
Scripps,ioos:station:wmo:42099:1,2015-01-11T15:22:00Z,27.3400,-84.2750,0.0,22.35,2 
Scripps,ioos:station:wmo:42099:1,2015-01-11T16:22:00Z,27.3400,-84.2750,0.0,22.4,2 
Scripps,ioos:station:wmo:42099:1,2015-01-11T17:22:00Z,27.3400,-84.2750,0.0,22.45,2 
Scripps,ioos:station:wmo:42099:1,2015-01-11T18:22:00Z,27.3400,-84.2750,0.0,22.55,2 
Scripps,ioos:station:wmo:42099:1,2015-01-11T19:22:00Z,27.3400,-84.2750,0.0,22.55,2 
Scripps,ioos:station:wmo:42099:1,2015-01-11T20:22:00Z,27.3400,-84.2750,0.0,22.6,2 
Scripps,ioos:station:wmo:42099:1,2015-01-11T21:22:00Z,27.3400,-84.2750,0.0,22.65,2 
Scripps,ioos:station:wmo:42099:1,2015-01-11T22:22:00Z,27.3400,-84.2750,0.0,22.7,2 
Scripps,ioos:station:wmo:42099:1,2015-01-11T23:22:00Z,27.3400,-84.2750,0.0,22.65,2 
Scripps,ioos:station:wmo:42099:1,2015-01-12T00:22:00Z,27.3400,-84.2750,0.0,22.45,2 
Scripps,ioos:station:wmo:42099:1,2015-01-12T01:22:00Z,27.3400,-84.2750,0.0,22.45,2 
Scripps,ioos:station:wmo:42099:1,2015-01-12T02:22:00Z,27.3400,-84.2750,0.0,22.5,2 
Scripps,ioos:station:wmo:42099:1,2015-01-12T03:22:00Z,27.3400,-84.2750,0.0,22.55,2 
Scripps,ioos:station:wmo:42099:1,2015-01-12T04:22:00Z,27.3400,-84.2750,0.0,22.5,2 
Scripps,ioos:station:wmo:42099:1,2015-01-12T05:22:00Z,27.3400,-84.2750,0.0,22.35,2 
Scripps,ioos:station:wmo:42099:1,2015-01-12T06:22:00Z,27.3400,-84.2750,0.0,22.2,2 
Scripps,ioos:station:wmo:42099:1,2015-01-12T07:22:00Z,27.3400,-84.2750,0.0,22.2,2 
Scripps,ioos:station:wmo:42099:1,2015-01-12T08:22:00Z,27.3400,-84.2750,0.0,22.2,2 
Scripps,ioos:station:wmo:42099:1,2015-01-12T09:22:00Z,27.3400,-84.2750,0.0,22.2,2 
Scripps,ioos:station:wmo:42099:1,2015-01-12T10:22:00Z,27.3400,-84.2750,0.0,22.2,2 
Scripps,ioos:station:wmo:42099:1,2015-01-12T11:22:00Z,27.3400,-84.2750,0.0,22.25,2 
Scripps,ioos:station:wmo:42099:1,2015-01-12T12:22:00Z,27.3400,-84.2750,0.0,22.3,2 
Scripps,ioos:station:wmo:42099:1,2015-01-12T13:22:00Z,27.3400,-84.2750,0.0,22.25,2 
Scripps,ioos:station:wmo:42099:1,2015-01-12T14:22:00Z,27.3400,-84.2750,0.0,22.3,2 
Scripps,ioos:station:wmo:42099:1,2015-01-12T15:22:00Z,27.3400,-84.2750,0.0,22.35,2 
Scripps,ioos:station:wmo:42099:1,2015-01-12T16:22:00Z,27.3400,-84.2750,0.0,22.35,2 
Scripps,ioos:station:wmo:42099:1,2015-01-12T17:22:00Z,27.3400,-84.2750,0.0,22.3,2 
Scripps,ioos:station:wmo:42099:1,2015-01-12T18:22:00Z,27.3400,-84.2750,0.0,22.4,2 
Scripps,ioos:station:wmo:42099:1,2015-01-12T19:22:00Z,27.3400,-84.2750,0.0,22.5,2 
Scripps,ioos:station:wmo:42099:1,2015-01-12T20:22:00Z,27.3400,-84.2750,0.0,22.5,2 
Scripps,ioos:station:wmo:42099:1,2015-01-12T21:22:00Z,27.3400,-84.2750,0.0,22.55,2 
Scripps,ioos:station:wmo:42099:1,2015-01-12T22:22:00Z,27.3400,-84.2750,0.0,22.55,2 
Scripps,ioos:station:wmo:42099:1,2015-01-12T23:22:00Z,27.3400,-84.2750,0.0,22.45,2 
Scripps,ioos:station:wmo:42099:1,2015-01-13T00:22:00Z,27.3400,-84.2750,0.0,22.4,2 
Scripps,ioos:station:wmo:42099:1,2015-01-13T01:22:00Z,27.3400,-84.2750,0.0,22.35,2 
Scripps,ioos:station:wmo:42099:1,2015-01-13T02:22:00Z,27.3400,-84.2750,0.0,22.4,2 
Scripps,ioos:station:wmo:42099:1,2015-01-13T03:22:00Z,27.3400,-84.2750,0.0,22.45,2 
Scripps,ioos:station:wmo:42099:1,2015-01-13T04:22:00Z,27.3400,-84.2750,0.0,22.5,2 